Lid_Strength_Index
3 2 2 2 8 8 9 9 6 7 7 4 4 5 6 5 7 9 1 0 -0 -0 -1 -1 -1 -1 -1 -1 -1 -1 -1 -1 -1 -1 -1 -1 -1 -1 -1 -1 -1 -1 -1 -1 -1 -1 -1 -2 -2
5 3 2 4 10 11 10 7 8 6 5 4 4 5 5 6 3 3 2 0 -0 -0 -1 -1 -0 -1 -1 -1 -1 -1 -1 -1 -1 -1 -1 -1 -1 -1 -1 -1 -1 -1 -1 -1 -1 -1 -1 -2 -1
3 1 5 7 9 11 10 7 7 6 5 5 6 4 5 5 3 2 2 0 -0 -0 -1 -1 -0 -1 -1 -1 -1 -1 -1 -1 -1 -1 -1 -1 -1 -1 -1 -1 -1 -1 -2 -1 -1 -1 -1 -1 -1
2 2 4 10 11 8 8 7 6 6 5 5 5 6 4 2 3 4 3 2 1 -0 -1 -0 -1 -1 -1 -1 -1 -1 -1 -1 -2 -2 -1 -1 -1 -1 -1 -1 -1 -1 -2 -2 -1 -1 -1 -1 -2
3 4 9 11 10 8 7 6 6 7 6 6 5 7 5 4 4 5 5 4 4 2 -0 -1 -1 -1 -1 -1 -1 -1 -1 -1 -1 -1 -1 -1 -1 -1 -1 -1 -1 -1 -2 -2 -2 -2 -2 -2 -2
6 5 11 13 10 8 7 5 6 7 6 5 6 5 5 3 7 6 6 6 5 5 1 -1 1 0 -0 -1 -1 -1 -1 -1 -1 -1 -1 -1 -1 -1 -1 -1 -1 -1 -2 -2 -2 -2 -1 -1 -1
9 8 11 10 10 8 8 6 7 8 9 8 7 9 5 7 7 7 6 6 5 5 3 -0 -1 -0 1 1 0 -0 -1 -1 -1 -1 -1 -1 -1 -1 -1 -1 -1 -1 -1 -1 -1 -2 -2 -2 -1
8 8 10 10 11 11 8 8 10 10 11 9 9 10 11 10 8 7 7 6 6 6 6 6 4 0 -1 -1 2 1 0 0 -0 -0 0 1 1 0 0 0 -0 -1 -1 -1 -1 -1 -1 -1 -1
5 10 12 11 11 10 9 10 9 8 9 8 9 10 10 9 8 9 8 8 8 7 7 6 6 6 3 -1 0 2 1 1 1 0 2 2 -1 -1 -1 0 0 -1 -1 -1 -1 -1 -1 -0 -0
9 12 11 11 11 12 11 11 10 10 10 11 11 10 10 9 9 9 10 10 10 9 8 8 8 7 6 4 -1 -1 -1 -1 -1 -1 -1 -1 -1 -1 -1 1 2 0 1 -0 -1 -1 0 1 -0
10 12 11 12 11 12 12 12 11 12 13 14 14 13 11 10 10 10 10 9 10 10 10 10 9 8 7 6 2 -1 -1 -1 -1 -1 -1 -1 -1 -1 -1 -1 -1 -1 2 -1 -1 -1 -1 -1 1
12 11 12 12 12 14 14 12 13 15 15 13 13 12 11 11 12 11 11 11 11 10 9 10 10 10 9 8 6 2 -0 -0 -0 -1 -1 -0 -0 -0 -0 -0 -1 -1 -1 -1 -1 -0 -0 0 1
12 12 11 11 13 14 13 13 13 15 13 13 12 12 12 12 12 12 12 11 11 11 11 10 10 11 11 10 8 7 3 -0 -0 -0 -0 -0 -0 0 -0 -0 -0 -0 -1 -0 -0 -0 1 1 3
11 11 12 12 13 14 14 12 11 13 12 12 12 12 12 12 12 12 12 12 12 12 12 11 11 10 10 10 10 9 7 4 -1 -0 -0 -0 -0 -0 0 0 0 -0 -1 -0 -0 1 3 3 5
11 12 12 14 14 15 14 14 15 12 11 12 12 12 12 12 12 13 12 12 12 12 12 12 12 11 11 10 9 9 9 7 5 -0 -1 -0 -0 -0 0 0 0 0 -0 -0 0 1 2 3 5
13 12 14 15 15 15 14 17 14 12 12 12 12 12 12 12 12 12 12 13 12 12 12 12 12 12 12 12 10 9 8 8 7 4 -1 -0 -0 -0 0 1 1 0 1 0 1 1 3 3 5
14 14 16 16 15 15 14 16 13 12 12 13 12 12 12 12 12 12 12 12 13 13 13 13 12 12 12 11 11 10 9 7 7 4 2 -0 -0 -0 0 0 1 1 1 1 1 1 2 3 4
16 16 17 17 16 15 15 15 13 12 12 12 12 12 12 12 12 11 11 11 12 12 13 13 13 12 12 11 10 10 10 9 7 6 7 5 0 -0 0 0 0 1 1 1 1 1 2 1 3
17 17 17 16 16 16 17 16 14 13 13 13 13 12 12 12 11 10 10 10 11 11 12 13 14 13 13 12 12 12 11 9 9 8 7 6 6 4 0 0 0 1 1 1 2 2 3 5 4
17 17 17 16 16 16 16 16 14 13 13 13 13 12 12 12 12 11 11 11 11 11 11 12 13 13 13 12 12 11 11 10 9 7 7 7 6 5 4 0 1 1 1 1 2 2 6 7 7
17 18 18 18 16 15 15 15 15 13 12 12 12 12 12 12 12 12 11 11 11 11 12 12 12 12 12 13 12 12 12 11 11 10 9 8 8 7 6 4 0 1 1 2 3 3 5 8 9
18 17 18 18 17 17 15 17 15 13 13 13 13 12 12 12 12 11 11 11 11 11 11 11 12 12 12 12 13 14 14 14 12 12 10 9 7 7 6 6 2 1 1 1 2 3 3 4 8
18 16 17 17 17 17 16 17 15 14 15 14 13 13 12 12 12 12 11 11 11 11 11 11 11 12 12 13 13 14 15 14 13 12 12 11 9 8 7 5 4 1 1 1 2 3 4 4 5
16 17 17 16 17 18 17 18 15 15 14 14 13 13 13 12 12 11 11 11 11 11 11 11 12 12 12 12 13 14 14 15 15 14 13 12 11 10 8 6 5 1 1 1 1 2 3 3 4
16 17 16 18 18 18 17 19 15 13 14 14 14 13 13 12 12 12 12 12 11 12 11 12 12 13 12 12 13 13 13 14 15 15 14 14 13 12 10 9 7 6 1 1 1 2 3 3 4
18 18 17 20 19 18 18 20 15 13 13 13 13 13 12 12 12 12 12 11 11 12 12 12 12 12 12 12 12 11 11 12 13 14 14 14 14 13 11 10 8 7 1 1 1 2 3 3 3
18 18 18 20 22 22 17 15 14 13 14 14 14 13 13 12 12 12 12 11 11 12 12 12 12 13 12 12 11 11 10 11 11 11 12 13 14 13 12 11 9 8 2 1 2 3 3 4 4
18 16 20 19 22 22 18 19 16 16 15 14 14 14 13 12 12 12 12 12 11 11 12 12 12 13 13 12 12 11 10 10 10 10 11 11 12 13 12 12 10 8 7 1 2 3 3 4 4
20 19 20 19 20 21 22 17 12 13 13 14 14 14 13 12 12 12 11 11 11 11 12 12 13 13 13 13 13 12 11 11 10 11 11 11 11 11 12 11 11 10 8 5 2 3 4 4 6
18 18 18 20 21 21 22 21 13 14 14 14 13 13 13 12 12 12 11 11 11 11 12 12 13 13 13 13 13 13 12 12 11 11 12 11 12 11 11 11 12 11 12 12 8 6 6 6 6